Tracking 18630 objects as of 26-May-2017
HD Live streaming from Space Station
objects crossing your sky now

COSMOS 2251 DEB

Track COSMOS 2251 DEB now!
10-day predictions


NORAD ID: 35442
Int'l Code: 1993-036AKL
Perigee: 741.2 km
Apogee: 765.4 km
Inclination: 74.0 °
Period: 99.7 minutes
Semi major axis: 7124 km
RCS: 0.0032 m2 (small)
Launch date: June 16, 1993
Source: Commonwealth of Independent States (former USSR) (CIS)
Launch site: PLESETSK MISSILE AND SPACE COMPLEX (PKMTR)

Note: This is SATELLITE DEBRIS
Your satellite tracking list
Your tracking list is empty





NASA's NSSDC Master Catalog

Two Line Element Set (TLE):
1 35442U 93036AKL 17144.18104264 +.00000732 +00000-0 +22287-3 0  9998
2 35442 074.0418 219.5352 0016933 313.7330 074.5221 14.43744146420198
Source of the keplerian elements: AFSPC